Weather in Aizpute

Latvia     56˚43′15″N   21˚36′07″E
temp.,
°C
wind,
m/s
gust,
m/s
humid.,
%
clouds,
%
prec.,
mm/h
press.,
hPa
HPBL,
m
30 november, mon
mon3023:00+1˚ne258296 0.1 1023428
02:00nnw128484 0.1 1022162
05:00n129193 0.0 102198
08:00nw008995 0.0 102039
11:00sw129099 0.1 1020175
14:00+1˚ssw369099 0.1 1019315
17:00+1˚s249794 0.3 1018192
20:00+1˚s349784 1.0 1017139
1 december, tue
tue123:00+2˚s3596100 0.3 1017190
02:00+2˚s489696 0.4 1018396
05:00+3˚ssw379799 0.6 1018287
08:00+3˚ssw3993100 0.8 1020533
11:00+2˚s598499 0.1 1021549
14:00+1˚s488296 0.1 1023480
17:00s3885100 0.0 1024330
20:00s488799 0.0 1026297
2 december, wed
wed223:00−1˚s3887100 0.0 1027313
02:00−1˚sse378698 0.0 1028301
05:00−1˚sse258696 0.0 1027268
08:00−2˚se268761 0.0 1028257
11:00−1˚se36800 0.0 1027297
14:00se36750 0.0 1026417
17:00−1˚se378120 0.0 1025344
20:00−2˚se498059 0.0 1024389
3 december, thu
thu323:00−2˚sse4978100 0.0 1023427
02:00−2˚sse41078100 0.0 1022394
05:00−2˚sse4989100 0.0 1020466
08:00−2˚sse5987100 0.0 1019568
11:00sse5977100 0.0 1019871
14:00sse4979100 0.0 1018708
17:00−1˚sse488493 0.0 1017782
20:00se598197 0.0 1017863
4 december, fri
fri423:00−1˚sse598295 0.0 1017675
02:00se597997 0.0 1016641
05:00−1˚se5128651 0.0 1015535
08:00−1˚se6138565 0.0 1014528
11:00+1˚se7148299 0.0 1014561
14:00+2˚ese7137994 0.0 1013525
17:00+1˚se7158674 0.0 1012535
20:00+2˚se6148887 0.0 1013718